Location: Peterborough
(44.3091°N, 78.3197°W)
Time: 05:43:29
(UTC-04:00)

Vanguard 2 - Pass Details

Date: 26 March 2023
Orbit: 552 x 2926 km, 32.9° (Epoch: 04 June)

Event Time Altitude Azimuth Distance (km) Brightness Sun altitude
Rises 04:46:08 0° 208° (SSW) 6,585 - -24.6°
Reaches altitude 10° 04:51:23 10° 198° (SSW) 5,701 - -23.8°
Exits shadow 04:51:28 10° 198° (SSW) 5,688 11.5 -23.8°
Maximum altitude 05:04:59 28° 148° (SSE) 4,277 11.3 -21.6°
Drops below altitude 10° 05:17:02 10° 97° (E) 5,075 12.5 -19.7°
Sets 05:21:17 0° 87° (E) 5,780 13.3 -19.0°
